GFSFLT1_925_rhum_273.txt.gz
RH
22 24 27 27 32 35 38 38 39 44 43 47 54 49 60 52 59 70 68 71 80 86 94 97 95 98 98 98 97 99 100 94
23 24 27 27 33 37 40 39 40 43 46 49 56 58 61 56 62 80 74 81 76 81 91 98 99 98 96 98 100 99 94 98
24 24 26 30 35 38 39 40 40 43 46 50 50 58 64 65 61 82 74 81 74 77 81 91 99 99 98 97 98 100 100 99
28 26 27 28 33 37 39 39 40 44 46 49 53 56 70 72 67 76 77 85 79 83 72 82 94 99 100 100 97 99 99 98
27 27 28 29 32 36 40 40 41 44 46 50 51 62 72 72 68 70 70 80 82 78 82 75 86 93 98 98 97 95 100 100
29 29 28 28 32 36 41 40 41 45 46 51 48 72 71 70 82 72 74 76 78 79 81 78 86 90 93 97 98 98 97 100
30 29 29 29 33 38 42 41 43 45 48 52 49 69 70 74 72 77 74 74 75 77 78 82 78 96 93 96 98 99 98 99
38 34 33 30 36 43 43 43 46 46 50 49 68 69 60 64 73 70 74 75 74 80 74 78 77 82 88 95 99 99 100 100
42 38 34 30 39 45 44 46 45 48 50 49 68 63 57 60 60 64 71 68 71 70 72 71 72 74 78 84 96 99 100 100
49 44 31 32 41 45 46 42 45 48 46 52 65 58 63 63 66 71 72 65 68 76 86 74 69 70 84 78 87 98 100 99
58 52 31 35 39 42 39 40 45 47 45 61 54 47 57 60 67 74 71 73 69 79 82 85 96 84 96 85 89 98 100 100
67 48 33 35 38 37 35 40 44 46 47 56 50 49 50 53 65 77 78 73 80 81 85 92 86 94 99 84 95 97 100 100
55 34 35 36 36 30 35 39 45 45 52 51 52 53 56 69 77 77 73 72 80 91 91 95 83 89 94 84 96 98 100 100
36 38 36 36 30 31 36 38 46 46 49 48 50 54 63 75 78 74 74 74 85 92 90 89 93 96 92 86 100 98 99 100
41 42 36 32 30 33 37 37 46 45 49 48 52 60 71 77 77 76 75 76 88 97 92 90 94 100 97 86 99 99 97 99
37 39 33 29 32 35 36 37 47 44 48 49 50 64 74 74 78 77 71 73 88 97 92 97 93 100 96 89 89 88 99 99
36 31 29 30 34 36 36 38 47 44 45 51 56 65 70 76 77 74 71 84 91 92 90 96 92 99 89 91 88 88 100 100
36 31 27 31 35 36 36 40 44 44 45 54 58 66 70 73 74 74 87 91 90 92 91 97 92 99 94 95 89 88 100 100
30 26 28 33 36 35 37 41 43 46 46 52 60 67 73 74 73 71 86 93 92 86 90 97 97 96 90 96 91 94 99 99

GFSFLT1_925_rhum_276.txt.gz
RH
28 29 32 36 37 36 38 40 42 43 44 48 48 51 66 65 61 77 67 79 73 80 79 83 97 99 100 100 98 96 98 100
27 27 31 34 35 37 39 39 43 44 46 49 51 56 70 66 63 72 70 73 78 82 89 77 88 95 98 98 100 99 97 96
28 28 29 33 34 38 40 40 43 44 46 50 50 62 71 70 70 73 67 76 81 81 83 83 84 93 96 94 100 99 98 99
31 31 29 30 34 40 41 41 44 45 47 50 52 71 71 76 68 70 74 75 77 80 81 82 82 87 93 94 99 99 99 98
32 32 30 30 33 40 42 42 45 46 48 52 60 70 73 66 70 68 71 75 76 75 78 80 81 83 88 96 97 98 99 99
37 33 30 31 35 42 43 43 46 47 50 52 61 68 56 57 54 60 71 71 74 71 74 77 78 80 82 91 95 98 100 100
36 30 33 37 40 44 44 46 46 48 48 56 68 56 58 61 62 65 71 74 67 68 75 70 72 76 76 81 85 93 99 98
42 41 43 45 48 46 47 44 47 47 49 65 58 52 64 66 65 69 72 75 78 65 81 72 69 73 69 76 81 90 99 100
46 42 52 46 50 47 41 44 48 46 56 60 46 51 56 59 66 72 79 73 77 76 76 81 82 70 74 73 78 96 99 99
54 51 52 51 48 41 41 45 47 48 57 52 51 53 54 67 70 86 85 71 80 81 81 88 85 88 99 71 86 97 97 99
58 60 44 47 39 39 40 45 46 52 52 52 52 58 68 73 81 73 71 77 85 87 82 88 86 91 97 73 94 95 98 99
68 59 45 38 34 38 39 45 46 51 48 48 55 67 74 76 73 74 73 81 87 86 88 91 88 96 94 84 99 97 98 97
58 42 40 32 36 38 37 45 46 49 48 50 60 67 74 74 77 77 72 82 85 87 88 94 94 99 91 95 99 97 96 100
48 44 39 35 37 37 36 45 46 46 48 51 63 71 70 78 78 76 72 80 88 86 93 92 94 99 88 100 100 92 94 100
51 46 37 36 37 36 36 46 45 46 49 54 64 67 68 78 77 74 71 79 90 89 93 93 85 98 96 100 100 85 99 98
46 43 36 37 37 36 38 48 45 46 47 59 66 66 70 73 74 70 70 87 86 87 92 97 81 98 98 96 96 93 99 97
38 34 36 38 37 36 41 45 44 47 48 63 66 66 70 75 72 70 82 87 86 87 89 98 93 95 93 96 96 95 96 98
37 32 36 37 37 36 43 43 46 46 51 64 67 68 73 74 70 76 85 84 86 88 84 88 98 93 96 97 94 99 99 99
32 32 36 37 36 38 42 43 46 49 51 66 67 70 74 73 77 81 84 83 86 87 83 85 94 97 100 98 98 99 99 98

GFSFLT1_925_rhum_279.txt.gz
RH
32 32 33 33 35 37 39 42 44 45 47 47 47 58 69 64 57 72 71 78 80 83 88 87 83 88 92 94 99 98 100 100
30 30 32 33 35 39 42 42 45 46 49 51 51 65 71 59 55 61 75 78 81 80 82 82 82 86 88 93 100 99 98 97
31 30 30 30 34 41 43 44 46 47 50 49 55 68 62 60 57 59 68 78 78 74 77 80 80 84 83 91 98 99 96 98
33 32 30 33 36 42 44 46 47 48 48 48 59 63 58 63 62 61 62 71 72 72 73 75 76 82 88 87 96 99 98 98
36 33 31 42 39 46 45 47 46 46 46 57 68 57 64 65 65 68 64 64 75 68 67 71 71 77 77 79 82 87 100 99
42 35 39 47 42 47 47 46 42 46 50 66 51 57 64 64 65 70 76 71 67 66 71 69 71 79 77 81 80 80 98 100
37 37 44 45 49 48 46 41 44 48 55 57 49 52 56 63 69 76 83 82 76 75 78 73 77 76 78 75 67 93 98 99
43 45 57 53 50 46 42 42 47 48 58 52 53 58 61 69 78 83 83 85 88 92 85 89 76 83 95 68 76 99 99 100
46 55 57 56 48 41 40 45 48 53 53 52 60 60 68 75 82 71 77 85 91 94 88 88 86 93 90 70 90 97 94 95
56 62 53 51 41 39 42 48 49 52 48 56 61 66 74 76 72 74 79 86 92 86 87 88 93 95 91 71 100 95 93 97
61 67 50 43 37 40 43 49 51 50 49 57 63 71 72 75 77 75 79 87 88 88 92 97 95 94 89 81 99 93 90 98
69 54 46 35 37 39 42 48 49 49 50 57 65 68 64 78 77 74 76 85 87 88 96 98 95 100 95 98 98 89 100 99
62 48 38 35 39 39 42 49 46 48 54 59 66 62 67 77 76 74 76 82 84 88 96 94 94 98 100 98 98 85 100 100
54 46 37 38 41 38 42 48 46 48 55 62 64 64 69 75 75 73 74 82 85 83 92 99 88 99 91 92 90 98 98 98
55 48 41 40 40 39 44 48 46 50 56 65 65 66 68 73 72 73 80 84 84 78 86 100 91 95 92 96 94 98 97 96
52 46 41 42 39 39 46 45 48 50 58 66 68 67 68 70 74 78 82 82 84 80 79 87 100 94 97 96 96 93 99 99
45 39 41 41 38 41 45 46 48 52 59 69 67 68 69 73 76 81 80 82 80 82 81 86 98 95 95 94 97 93 98 100
41 37 39 39 38 42 44 46 48 51 63 69 67 72 73 74 80 87 78 76 79 86 83 86 98 97 98 98 93 96 95 95
35 36 39 38 39 42 44 47 49 52 69 69 68 72 76 76 86 85 80 77 84 88 81 90 100 100 95 95 95 97 90 95

GFSFLT1_925_rhum_282.txt.gz
RH
33 34 35 34 38 41 44 44 47 48 46 46 58 60 56 61 62 62 67 74 79 76 78 82 82 81 82 85 94 95 99 100
32 31 32 34 35 38 46 46 48 49 48 56 64 56 58 63 66 67 62 70 73 72 73 75 78 77 78 79 90 92 93 100
30 30 34 42 40 41 47 47 49 47 48 61 56 48 59 62 65 70 72 66 70 68 69 74 72 74 76 79 85 88 90 100
36 34 36 47 42 48 47 48 45 44 51 57 48 51 57 66 67 71 74 74 64 67 76 74 74 72 72 79 79 80 99 99
39 40 41 50 47 50 48 44 42 46 57 51 53 58 69 68 73 73 79 67 71 72 75 82 76 74 89 88 70 89 96 99
43 42 50 50 51 49 44 40 42 50 56 53 58 61 67 74 80 78 71 76 80 84 84 94 76 85 96 87 74 98 97 100
40 40 55 53 51 45 38 41 47 51 51 55 61 67 75 79 74 78 85 86 88 86 88 92 89 97 88 82 94 92 97 99
45 49 59 57 48 39 39 46 48 51 50 56 64 71 77 74 78 80 89 93 94 95 95 96 98 98 89 74 99 90 95 99
49 56 61 57 44 38 40 48 49 51 52 58 66 71 68 76 77 77 86 93 92 97 94 98 96 95 87 82 100 86 92 99
54 61 57 53 40 39 41 48 50 52 54 60 68 61 65 78 76 76 84 85 90 93 100 100 96 98 96 99 95 87 98 99
57 68 55 45 40 38 40 49 51 54 55 63 67 62 65 76 75 76 77 82 86 94 99 97 100 91 97 99 89 89 99 99
63 63 50 38 38 38 42 50 48 52 58 66 63 62 67 75 74 74 77 80 82 90 99 90 92 95 88 93 88 99 99 99
65 54 43 37 38 40 44 49 48 53 58 67 63 60 66 72 75 82 80 80 77 82 99 97 88 93 90 99 98 99 98 98
59 52 40 38 39 42 46 50 50 52 59 67 63 61 67 74 80 85 76 80 84 78 88 98 94 91 98 99 98 99 99 98
60 51 42 40 41 43 49 47 51 54 62 67 65 65 71 76 82 77 72 78 83 81 89 99 91 97 100 97 96 96 99 99
58 50 42 41 42 43 48 49 50 55 65 68 68 68 70 78 85 75 71 76 78 82 92 98 88 98 100 97 94 98 98 97
52 43 41 41 42 43 47 49 52 55 69 69 68 70 70 84 83 78 75 76 76 82 93 100 98 96 99 98 95 99 98 99
49 41 39 40 40 44 47 50 52 58 71 69 69 74 77 83 75 80 82 76 76 84 95 100 99 92 99 96 92 92 96 97
41 36 38 39 40 46 48 50 52 65 72 72 73 76 82 80 79 85 84 75 79 86 95 100 99 97 96 95 99 94 93 95

GFSFLT1_925_rhum_288.txt.gz
RH
22 24 27 31 36 44 46 50 51 45 42 38 39 40 41 44 45 52 62 62 66 64 56 62 76 71 72 77 77 65 60 75
22 25 30 36 40 44 48 45 45 41 38 41 44 43 42 42 44 54 61 66 67 66 66 73 73 75 86 73 70 64 72 91
21 23 29 40 43 47 45 42 39 42 41 44 47 44 42 43 45 54 61 66 71 72 77 80 80 75 74 75 74 81 86 94
19 23 30 39 44 47 42 41 39 45 50 44 48 43 40 41 46 52 60 66 72 79 82 84 80 78 82 75 85 93 97 94
20 24 30 39 46 49 42 40 40 44 50 50 54 48 45 45 50 55 58 64 72 81 86 94 86 95 97 78 84 97 99 99
19 26 33 41 46 44 43 39 41 47 51 57 57 53 50 48 52 55 57 62 70 83 99 97 93 92 90 88 93 96 98 100
22 29 41 42 44 43 41 38 38 47 51 56 60 58 56 53 55 56 60 65 72 86 98 88 94 94 93 93 91 95 99 100
23 27 35 43 43 41 37 35 38 45 50 56 59 59 55 53 56 58 66 76 77 84 94 96 92 94 92 92 91 95 99 100
24 31 40 42 42 41 39 37 40 45 50 58 59 61 57 54 59 66 74 76 77 81 96 93 92 89 92 93 91 92 99 99
26 34 44 45 41 43 44 45 43 48 53 59 57 60 61 60 62 66 70 77 79 82 93 94 90 92 93 93 93 94 98 99
29 35 46 43 43 42 46 48 47 50 55 59 58 62 61 62 63 67 71 76 81 84 94 89 89 92 95 91 90 92 95 98
30 39 45 40 41 40 46 47 48 51 56 60 63 63 61 61 64 67 72 75 80 88 96 91 89 92 95 89 87 89 90 95
33 43 42 38 37 37 43 49 50 53 58 62 64 62 60 61 64 68 73 73 78 87 98 92 88 93 93 91 89 88 91 92
40 43 37 36 37 40 41 47 49 53 55 58 62 62 61 62 65 68 71 75 78 87 99 96 95 94 93 91 90 90 89 91
39 40 37 37 37 39 41 47 50 52 53 55 62 62 63 64 66 68 70 76 80 87 98 96 96 93 93 93 91 90 90 90
37 38 37 38 37 40 42 46 50 54 53 55 60 60 62 64 66 67 67 71 78 86 96 92 94 93 98 99 98 92 90 91
35 37 36 35 34 37 44 48 53 54 53 56 57 58 58 62 64 64 64 64 68 77 90 91 90 94 100 99 99 98 94 95
36 35 32 33 35 41 44 48 54 53 52 51 53 55 54 58 59 61 62 60 64 65 75 83 88 92 98 99 93 95 98 100
36 32 33 34 40 45 49 48 54 54 50 47 51 53 52 54 55 60 58 53 58 60 64 68 80 82 100 97 82 84 94 97

GFSFLT1_925_rhum_294.txt.gz
RH
18 18 21 24 31 34 35 36 36 37 37 38 41 43 40 38 38 43 47 62 72 75 80 82 81 86 87 89 90 81 79 84
16 20 22 27 33 36 35 34 34 38 41 42 48 47 42 42 42 43 49 63 75 78 86 82 77 89 95 84 90 85 86 98
16 17 21 28 33 37 35 34 34 40 45 45 50 48 45 44 44 45 51 65 76 81 86 82 91 96 95 92 86 92 98 100
17 17 21 28 36 40 38 34 34 41 46 48 52 49 48 47 47 48 58 68 73 77 90 77 95 94 98 92 95 95 99 98
16 17 20 28 37 40 39 33 33 40 45 50 53 53 53 49 49 52 57 65 72 89 84 88 92 94 98 98 96 99 100 100
19 18 21 28 34 38 37 29 32 40 44 51 54 56 54 51 51 52 64 70 70 90 77 95 92 96 99 99 98 98 100 100
18 20 25 30 36 39 34 28 32 40 46 51 53 55 53 52 54 57 68 75 78 90 81 89 94 99 96 99 97 98 100 100
22 21 23 32 37 39 35 30 35 42 47 51 53 55 53 53 56 61 72 78 80 92 78 94 99 96 96 96 98 97 99 100
23 21 28 34 38 42 41 36 38 43 49 52 54 56 56 56 57 64 74 78 76 87 79 95 96 92 93 96 98 93 100 98
24 27 32 36 41 43 44 40 42 47 51 54 56 55 55 56 57 64 73 78 76 86 78 96 93 90 93 95 99 97 96 95
26 29 36 41 40 45 43 42 45 48 52 56 58 56 55 56 57 62 69 72 81 80 85 94 92 90 94 95 99 95 94 93
30 32 37 39 40 40 44 44 45 48 51 56 58 57 56 56 58 60 65 70 81 82 84 91 91 91 93 96 98 95 96 95
30 36 36 37 34 35 42 42 44 45 48 55 58 57 57 57 58 58 61 66 74 78 86 87 91 92 92 97 98 95 94 98
35 37 34 35 36 33 38 42 43 41 45 52 57 56 57 58 58 57 58 60 68 74 78 83 84 88 90 96 98 94 94 97
36 38 35 34 34 33 37 42 43 41 44 48 54 54 55 56 57 57 56 57 59 66 72 76 80 85 97 98 96 94 94 94
34 37 37 36 34 34 36 40 41 41 43 45 48 48 51 53 53 54 54 56 56 59 60 75 58 79 97 97 92 90 90 96
30 31 34 34 31 32 37 42 42 40 39 42 45 45 47 49 51 50 51 54 54 58 56 64 68 66 75 81 87 84 94 98
28 30 32 32 30 34 39 42 40 38 37 40 42 43 45 48 50 50 51 52 51 56 58 60 75 66 65 68 75 78 89 93
28 30 32 30 33 36 39 40 39 36 37 40 42 43 46 49 51 51 51 52 51 54 59 63 69 71 65 64 73 78 80 82

GFSFLT1_925_rhum_297.txt.gz
RH
19 21 22 32 35 36 35 34 37 40 41 49 47 47 46 44 45 57 64 68 67 70 73 70 78 94 97 96 99 88 94 96
20 21 24 34 37 36 35 33 39 42 45 52 51 50 49 46 46 65 62 64 64 78 74 75 85 97 96 99 99 99 95 94
22 22 26 37 39 38 37 34 39 44 48 52 53 53 52 49 46 68 63 61 65 91 78 81 93 98 98 100 100 98 94 98
25 24 28 40 41 40 39 35 41 44 48 54 54 54 54 52 52 67 66 64 78 83 71 84 89 100 100 99 99 100 98 99
23 25 40 40 41 39 34 36 41 46 50 53 55 54 54 55 55 67 66 74 78 84 70 83 94 100 99 100 100 100 100 98
28 32 36 38 39 38 29 38 42 47 52 53 55 54 53 56 59 68 69 77 78 78 72 88 98 100 99 100 100 100 100 100
31 28 34 40 40 34 31 38 45 48 52 54 56 55 57 57 65 71 73 80 83 78 77 93 100 100 100 100 100 99 99 100
34 30 44 43 41 38 36 40 47 51 53 55 56 55 58 58 67 73 78 80 86 76 81 97 98 96 97 99 100 100 98 100
37 41 45 45 44 42 39 43 50 52 55 57 56 56 57 59 66 71 72 82 85 76 85 98 93 94 94 99 100 100 98 99
46 47 48 45 44 44 42 46 51 53 57 59 58 57 58 59 62 69 69 78 78 75 88 96 87 90 94 98 99 99 98 99
49 53 48 45 45 44 44 47 50 52 58 59 58 57 58 58 59 66 68 72 70 74 81 92 88 87 94 99 99 98 99 100
54 52 44 43 44 44 45 47 47 53 57 58 58 58 58 59 58 59 69 68 70 71 72 87 85 94 95 99 98 96 99 100
52 49 41 40 44 43 44 45 45 51 54 56 57 57 58 59 59 57 60 69 69 70 75 67 80 90 96 100 97 98 99 100
52 48 46 37 40 42 44 43 44 48 50 54 55 55 56 56 57 55 58 59 64 70 76 46 80 82 96 99 96 98 96 98
52 53 46 37 35 42 44 44 43 45 48 50 50 52 53 53 53 54 56 57 59 59 75 49 75 85 94 96 91 94 95 98
48 53 47 38 36 40 42 42 43 42 45 47 47 49 50 52 50 53 52 56 59 58 73 57 54 76 86 93 87 91 93 94
43 44 42 38 36 41 43 42 40 40 43 44 45 47 50 52 50 53 52 55 60 63 69 64 57 75 74 93 88 88 91 90
41 41 41 38 37 41 43 40 38 39 42 43 45 47 51 51 52 52 53 54 59 65 69 68 70 81 72 78 82 84 91 90
38 40 37 34 39 41 42 40 37 39 42 44 46 50 52 53 54 54 53 54 60 64 68 71 62 83 74 75 81 84 86 88